BREEZE-M R/B, 39128

Orbit data source: Space-Track

BREEZE-M R/B, 39128 is space debris in HEO originally from a launch on Mon, 15 Apr 2013 UTC launched from the Tyuratam Missile And Space Complex (TTMTR). Debris objects in space refer to the collection of defunct objects orbiting the Earth. Examples of debris include non-operational satellites, rocket bodies, and fragments generated from explosions, collisions, or faulty payload assembly.

Loading next visibility...
Identifier
39128, 2013-014B
Orbit
HEO
Country
Flag of CISCIS
Related business
Manufacturer
Khrunichev
Mission
Spacecraft
Bus & Motor
BRIZ, Unknown motor
Mass
~1,600 kg wet, 1,600 kg dry
Launch date (UTC)
2013-04-15 (13 years ago)
Launch vehicle
Unknown
Launch site
Tyuratam Missile And Space Complex (TTMTR)
Object type
Payload
Rocket body
Debris
Shape & HBR
Cyl, 2.0 m
Radar Cross Section
15.135 m², Large (>1 m²)

Expand to show TLE details & history
Last TLE update: 15 hours ago

TLE from 15 hours ago
0 BREEZE-M R/B
1 39128U 13014B   25302.93719007 -.00000148  00000-0  00000-0 0  9994
2 39128  15.4682  25.6946 4794152 167.9304 209.6538  1.90429986 87236
Epoch: 2025-10-29T22:29Z
TLE epoch observation values (Epoch: 2025-10-29T22:29:33.222Z)
Latitude
0.00002°
Longitude
9.78765°
Altitude
33,513.097 km
Speed
2.343 km/s
True Right ascension
01h 42m 43s
True Declination
0° 00' 00"
Sunlit
Object was in daylight at epoch
Visualization orbit readout
Latitude
Unknown
Longitude
Unknown
Altitude
Unknown
Speed
Unknown
Apparent Right ascension
Unknown
Apparent Declination
Unknown
Sunlit
N/A
Visualization observer readout
Local Sidereal Time
08:54:30
Azimuth
Unknown
Elevation
Unknown
Doppler factor
Unknown
Orbital elements
Apogee altitude
34,300.719 km
Perigee altitude
7,936.164 km
Semi-major axis
27,496.579 km
Eccentricity
0.47942
Inclination
15.4682°
RAAN
25.6946°
Arg. of periapsis
167.9304°
True anomaly
192.0506°
Mean anomaly
209.6538°
Eccentric anomaly
200.17861°
Mean motion
0.47602 °/min
Orbital period
756.27 mins
BSTAR
0
Loading maneuver chart data...
Computing Atmospheric mass density...
Loading historical data...
Loading historical data...
Loading historical data...
Loading historical data...
Loading historical data...
Loading historical data...
Loading historical data...
Other satellites on launch #14 in the year 2013 (2013-04-15 UTC)

Documentation

Showing up to 5 results
|